RH
84 82 81 81 77 75 76 78 80 80 81 81 77 72 65 59 57 56 55 56 56 55 55 55 55 57 60 64 67 70 73 71 61 59 63 63 63 66 65 64 62 59 59 61 61 60 59 59 60 62 64 65 65 65 65 64 64 63 60 60 61 61 62 60 59 57 52 48 48 47 45 45 42 41 42 41 42 43 43 44 49 53 54 56 59 61 62 62 59 56 54 53 52 51 51 50 49
86 85 83 81 77 74 76 78 81 81 81 80 70 63 65 63 58 56 55 54 52 50 52 54 56 57 58 58 62 66 72 71 60 55 57 60 65 66 65 64 61 59 59 58 58 58 58 57 56 56 56 57 58 58 60 61 61 60 59 59 61 61 61 59 58 56 52 50 50 50 48 47 45 44 44 42 42 43 42 44 49 53 54 55 58 62 63 63 60 57 55 54 54 52 50 49 49
84 87 83 79 76 74 76 79 82 83 82 80 70 69 73 65 58 55 53 51 50 50 53 57 59 57 53 53 56 60 62 61 54 51 54 60 65 67 67 65 60 59 59 57 56 57 57 56 54 52 52 53 53 54 56 57 57 59 59 59 62 60 60 58 56 53 53 53 53 53 52 49 48 47 47 44 43 44 44 44 47 52 53 54 58 62 64 64 61 58 57 56 54 53 50 48 48
80 85 83 79 77 74 78 83 84 84 84 82 79 78 71 59 57 56 54 52 54 54 53 55 56 54 50 51 51 51 51 52 53 54 56 59 61 64 66 63 60 60 59 55 54 56 56 55 53 51 52 53 52 51 52 53 55 57 59 60 62 59 58 58 56 55 54 55 56 56 54 53 52 51 48 46 44 45 45 46 48 51 54 57 60 62 64 64 62 59 59 57 54 53 51 48 47
82 83 83 81 79 79 82 85 85 85 86 85 83 74 60 55 58 59 57 55 55 56 54 51 52 51 48 46 46 46 48 50 53 54 55 58 59 62 64 62 60 61 58 52 52 55 54 53 51 50 51 52 51 50 51 52 54 55 57 60 62 59 57 57 56 56 56 57 59 58 58 57 56 55 52 48 45 44 47 49 50 51 54 58 61 63 64 64 63 61 59 57 55 52 50 47 43
86 85 83 81 80 81 84 86 86 86 85 84 79 63 55 57 56 56 55 53 54 57 57 53 50 47 45 47 47 47 49 50 52 53 53 56 59 61 62 60 57 56 53 50 50 50 51 52 50 49 49 50 51 51 52 52 53 53 55 59 62 60 57 58 58 58 57 58 60 59 59 59 59 59 56 51 47 45 46 49 52 52 53 56 60 62 63 63 62 61 59 57 54 51 47 42 37
82 84 83 84 82 81 86 88 86 85 84 79 69 59 59 58 52 52 53 51 51 55 56 52 49 44 46 51 51 52 50 47 49 52 52 54 57 60 60 58 56 53 49 47 45 44 46 49 49 48 47 48 49 50 51 52 52 52 55 59 60 60 60 63 63 61 60 60 61 59 60 62 61 61 58 53 50 48 48 51 54 55 55 57 59 60 61 61 61 59 57 54 50 46 40 35 31
81 84 84 86 85 84 88 88 85 83 82 75 64 59 60 57 52 53 53 52 53 57 57 54 49 46 54 54 53 56 49 46 49 50 49 51 54 57 58 57 57 57 52 46 42 43 44 46 46 45 44 45 46 48 48 50 53 53 55 58 59 60 62 65 65 63 62 63 64 62 63 64 62 61 59 55 53 52 52 54 56 58 58 58 58 58 60 60 58 54 50 47 42 35 29 26 23
82 84 85 87 87 87 88 87 85 84 80 72 65 59 57 57 56 56 55 53 56 59 59 58 51 48 56 52 50 52 46 46 48 49 49 50 53 54 54 55 57 60 55 47 44 46 48 50 48 47 48 49 51 52 51 51 54 55 55 57 59 61 64 66 64 64 65 67 68 66 65 63 60 60 59 58 57 56 56 58 58 58 58 59 58 57 58 57 54 49 44 40 33 25 21 20 20
82 85 86 88 87 87 89 87 87 87 81 72 68 63 57 58 59 56 55 55 59 61 60 58 51 47 50 47 47 46 42 42 44 50 53 52 53 52 54 56 58 59 56 51 50 51 54 55 54 54 55 56 56 57 57 55 57 58 57 58 60 63 65 66 64 65 66 67 69 67 63 61 60 60 60 59 59 58 58 59 58 57 57 58 58 57 55 54 52 46 39 32 25 19 18 20 23
83 85 85 87 86 88 89 87 86 86 82 75 72 68 59 60 62 57 54 59 61 60 59 56 50 46 44 45 47 42 40 42 43 47 52 53 54 55 57 60 60 59 59 57 56 55 56 57 57 58 56 55 56 57 59 59 60 60 60 62 64 66 65 64 65 66 65 65 67 65 62 62 61 60 59 59 58 57 57 58 58 57 56 55 54 53 52 51 49 41 31 25 20 19 21 24 26
85 88 87 87 88 90 88 86 87 84 81 78 76 71 61 60 62 58 57 62 61 60 60 55 51 47 42 44 46 45 44 45 45 46 49 53 57 58 59 61 61 61 61 61 60 58 57 58 57 58 56 55 56 58 61 62 63 61 62 65 66 65 63 63 65 66 64 63 64 64 65 64 61 59 58 57 57 56 56 56 57 56 55 53 52 50 48 47 41 32 26 22 20 22 24 26 26
86 91 91 89 88 89 87 84 85 83 82 79 78 75 66 62 62 59 57 60 62 64 62 55 51 45 40 43 50 55 50 43 44 46 48 52 55 58 58 60 64 64 62 62 61 58 58 60 58 57 56 56 58 61 64 64 64 63 64 65 65 65 63 64 65 64 63 63 64 64 65 64 60 57 55 55 55 54 54 54 54 53 52 52 51 47 43 37 30 26 25 24 23 24 26 26 25
83 88 90 90 89 89 87 85 82 82 83 78 78 78 70 63 61 59 56 60 64 63 62 56 49 42 38 43 55 59 48 42 44 46 47 49 53 55 58 61 66 66 63 63 62 59 58 59 59 58 58 58 60 61 63 64 63 63 64 64 64 65 64 64 64 63 62 63 63 62 61 60 58 56 54 53 53 51 51 52 50 48 49 51 49 41 33 28 25 26 25 24 24 27 30 30 28
78 85 88 89 90 88 87 87 82 82 82 75 77 76 66 59 59 61 58 61 61 62 65 59 51 43 39 45 51 49 43 44 46 45 47 51 54 57 61 64 69 68 65 64 60 58 58 59 60 61 61 61 62 63 63 63 62 63 64 64 64 64 64 63 63 62 63 63 62 60 59 59 59 56 53 52 51 49 48 48 45 43 46 47 41 32 27 26 27 27 26 26 27 30 32 31 30
74 82 87 87 89 89 87 86 82 84 81 73 73 68 59 56 60 63 59 59 58 62 67 63 57 46 41 44 42 40 40 46 46 44 48 53 56 61 64 65 69 67 63 62 59 59 60 61 64 65 64 63 64 64 63 62 62 64 64 65 65 64 63 62 60 60 61 62 61 59 59 58 57 55 52 51 49 47 45 42 40 41 42 39 33 28 28 28 28 29 30 31 31 31 30 30 30
71 81 86 84 86 89 87 86 84 84 82 76 72 61 56 58 58 54 52 55 55 59 64 61 60 50 43 43 38 38 41 44 45 45 48 53 58 63 65 64 67 65 60 60 60 61 63 64 65 65 65 65 65 64 63 62 62 64 64 65 66 64 61 59 58 58 60 61 60 57 55 54 54 52 50 48 45 43 39 36 36 37 34 31 29 29 29 29 28 31 32 32 32 31 29 30 31
69 83 87 83 85 88 85 85 85 84 80 76 70 57 53 56 49 43 47 52 50 56 61 56 59 60 50 42 37 38 41 42 43 45 48 55 63 66 66 65 65 62 60 61 60 61 63 63 63 63 63 65 65 63 62 62 61 62 63 62 63 61 59 56 56 56 55 53 51 47 46 47 49 48 46 43 39 36 33 32 33 31 28 28 28 29 30 30 30 31 31 31 31 32 31 31 32
68 81 85 82 84 86 83 82 84 84 79 71 65 57 51 49 41 42 48 47 47 55 59 55 61 65 52 40 38 39 39 40 42 45 51 58 64 66 66 66 64 61 61 62 59 58 59 60 62 62 62 63 63 61 62 62 62 62 60 60 59 58 55 54 53 51 47 42 40 39 38 39 41 40 38 36 32 30 30 30 30 27 27 27 27 29 31 31 31 31 30 31 31 33 34 34 34
64 73 80 82 81 83 81 81 84 81 78 72 67 61 50 44 43 48 50 48 52 55 54 56 61 61 48 38 38 38 39 40 43 50 59 63 64 64 65 66 64 60 60 58 55 56 57 59 61 59 60 60 59 59 61 62 62 62 59 58 57 55 53 51 50 48 43 38 37 37 35 34 34 34 33 31 28 27 28 28 27 27 27 27 28 30 30 31 30 30 29 31 32 33 33 34 35
60 66 75 79 78 81 79 79 83 78 76 75 70 64 55 51 52 54 54 53 58 56 52 55 55 50 42 38 37 38 40 42 46 54 64 67 65 64 63 62 61 59 57 54 52 54 56 58 57 55 56 56 56 58 59 60 62 62 58 56 55 53 52 51 49 46 42 40 39 36 32 30 29 29 28 27 26 25 26 27 26 26 26 27 29 30 30 30 30 30 31 33 35 35 34 34 35
59 63 69 75 75 79 78 75 80 78 75 77 73 68 62 60 58 57 59 59 59 57 55 54 49 43 38 37 38 40 44 47 50 57 65 66 64 63 61 60 59 58 56 54 52 52 53 54 53 52 53 53 54 56 57 58 59 59 55 54 54 53 53 51 49 46 44 42 38 33 28 25 25 25 24 25 25 25 25 26 26 27 29 30 31 31 32 32 33 33 34 35 36 36 37 36 35
55 58 65 73 73 73 73 73 78 78 77 78 76 73 69 67 63 59 63 64 60 59 57 53 48 42 39 38 40 43 51 54 55 59 64 64 61 59 59 59 58 56 55 55 53 52 53 52 52 51 50 51 53 54 55 56 57 55 53 53 54 55 55 53 51 47 45 42 37 33 29 25 24 24 24 24 24 24 26 28 30 32 33 33 33 34 35 35 37 37 36 36 35 36 37 36 34
49 55 64 71 71 69 70 71 72 75 80 78 74 75 73 72 69 62 65 65 60 59 56 51 48 45 42 43 46 49 56 61 58 59 63 61 58 55 55 56 56 53 53 55 53 51 53 52 50 50 49 51 52 52 52 53 54 54 53 54 55 56 57 57 53 47 44 41 38 36 34 31 29 29 30 29 28 27 30 34 36 36 36 36 37 38 37 38 41 41 38 36 35 35 34 33 34
48 54 62 67 68 68 68 68 67 72 79 77 74 75 74 72 71 65 61 61 60 59 56 52 50 48 48 50 52 55 60 63 60 59 60 57 54 53 53 54 54 53 53 55 54 53 54 52 51 50 50 51 51 50 49 51 53 54 54 55 56 56 56 55 51 46 42 41 40 39 39 40 40 40 40 38 36 36 38 40 40 39 39 40 40 39 40 41 43 43 40 38 37 35 33 33 35
50 53 61 66 66 66 69 70 72 76 76 75 78 78 75 71 70 66 58 58 61 58 55 55 52 52 54 55 56 59 63 63 62 62 59 54 51 51 52 53 55 54 54 54 52 52 53 53 52 52 52 50 50 49 49 52 54 53 53 54 54 53 51 50 48 44 43 43 43 41 43 48 48 46 47 46 44 43 44 44 43 43 42 42 42 42 43 43 44 43 41 40 38 35 35 36 36
48 54 63 68 68 67 69 73 75 77 76 76 80 84 79 70 69 68 57 55 59 58 57 56 54 57 59 59 59 62 64 64 66 64 59 54 49 49 50 52 55 54 53 54 53 52 52 53 54 54 54 52 50 49 51 53 53 53 52 52 52 49 48 47 47 47 45 46 45 42 45 52 53 50 48 48 48 47 47 47 46 45 43 43 43 43 44 44 46 45 42 41 39 38 39 40 38
47 54 64 70 71 68 70 77 78 77 79 78 81 86 80 70 71 68 55 50 56 59 58 57 56 60 63 61 60 63 63 64 68 65 60 53 47 48 51 53 55 54 52 52 52 51 50 50 53 54 55 54 50 49 51 53 53 52 50 49 49 47 46 46 46 46 46 46 45 43 46 51 54 51 49 48 48 50 51 50 46 44 44 46 46 46 46 46 48 47 44 42 41 39 39 42 41
48 55 64 71 72 71 72 78 83 83 84 81 81 86 81 73 71 65 55 51 56 59 56 57 58 61 64 61 62 63 62 64 67 66 61 54 46 47 51 52 54 53 50 50 52 50 47 49 51 52 53 52 50 48 51 54 54 51 48 47 48 47 47 46 44 43 44 44 44 45 47 48 51 52 51 51 51 51 52 51 47 44 45 48 49 47 46 47 48 46 44 42 40 39 39 43 44
50 55 62 72 73 74 76 77 82 86 86 82 83 85 83 78 70 63 57 54 57 58 55 57 58 60 63 62 64 64 62 64 66 65 62 54 45 44 50 52 52 51 49 51 53 51 48 47 48 49 49 49 49 49 50 53 52 49 47 47 48 47 44 42 42 43 43 43 42 45 47 47 49 51 52 52 51 51 52 52 50 47 45 47 47 44 43 44 45 44 43 43 42 41 41 45 44
50 55 61 70 73 75 77 74 79 86 85 82 82 85 83 79 73 65 59 57 59 58 56 58 57 60 62 62 65 65 63 63 65 66 62 55 45 43 48 51 52 50 49 52 53 51 49 47 47 48 48 47 46 48 50 51 49 47 47 48 48 46 40 37 37 40 43 43 42 43 45 48 49 50 51 51 51 50 51 50 49 48 45 44 43 41 41 42 42 40 41 43 43 42 42 46 45
50 57 65 70 72 75 75 72 73 78 80 79 80 83 82 79 75 69 63 62 62 62 62 59 57 60 62 61 63 65 65 64 65 66 62 57 48 43 46 49 50 48 49 52 51 49 49 47 48 49 48 46 44 45 47 47 46 46 47 47 45 41 36 34 34 35 38 41 42 42 43 46 49 51 52 51 50 50 49 47 47 46 43 42 42 41 41 43 42 41 42 43 43 44 44 45 47
52 56 65 69 72 74 74 72 69 70 74 76 78 80 81 79 76 74 69 65 65 65 66 62 59 62 62 60 62 65 64 65 67 64 61 57 49 42 44 48 48 47 50 51 48 46 46 46 46 48 47 44 42 42 42 42 42 45 47 46 43 38 34 34 34 34 36 37 39 41 42 44 48 52 53 50 49 48 48 46 45 45 43 42 41 41 41 43 44 45 45 44 45 45 45 43 42
56 57 61 67 69 70 73 75 72 70 71 73 74 76 78 77 76 78 75 71 69 66 65 64 62 63 62 59 61 64 64 67 68 63 60 57 49 42 43 47 48 47 51 49 46 46 45 45 45 44 43 42 40 40 39 39 41 43 44 43 41 38 38 40 40 40 40 38 36 39 41 45 47 49 50 50 48 47 47 45 45 46 45 44 44 43 43 43 44 47 48 49 49 47 47 46 42
52 54 59 64 66 66 70 73 72 71 71 72 72 73 75 75 77 79 77 77 76 70 66 67 65 63 63 61 61 63 64 68 68 63 61 58 50 42 42 46 47 47 49 47 45 46 44 45 45 42 39 39 39 40 39 39 42 43 42 41 40 40 42 44 44 44 44 41 37 37 40 44 47 48 49 49 48 46 45 45 45 46 45 46 48 47 46 44 44 47 50 53 53 51 51 51 49
48 49 55 59 62 65 66 67 68 67 68 71 72 74 74 75 78 79 77 77 79 76 70 67 67 66 66 65 62 63 64 67 67 64 62 56 49 43 41 44 46 46 48 45 45 44 43 45 44 41 38 37 38 39 39 39 42 44 42 42 42 44 46 46 46 46 45 43 39 37 38 39 44 49 51 51 48 46 46 45 45 45 45 48 50 46 46 46 46 46 49 50 51 51 52 53 53
44 45 52 55 58 65 66 65 64 61 62 67 70 75 75 75 77 78 77 76 78 79 74 69 69 69 68 65 61 62 64 66 66 64 62 56 48 43 41 43 44 46 46 43 43 42 42 43 42 40 39 36 36 38 39 41 44 44 44 47 47 47 48 50 51 48 45 43 39 38 37 36 41 48 52 51 48 47 46 44 44 44 44 49 49 45 44 45 44 44 44 45 47 48 48 50 50
44 44 50 55 57 61 64 65 63 59 61 64 66 72 75 74 75 76 76 77 77 78 77 73 70 70 70 66 61 61 63 66 66 64 65 59 49 43 42 43 44 45 45 43 41 41 42 41 38 38 38 35 36 38 38 43 48 48 47 49 51 51 51 52 52 49 47 44 40 39 38 37 39 44 48 47 45 45 44 41 42 43 42 46 47 44 43 43 43 43 42 41 42 43 44 47 47
40 42 47 56 59 61 64 65 63 61 62 63 63 69 74 74 74 76 77 77 75 75 76 76 72 70 71 69 65 61 60 64 65 64 66 61 51 44 43 43 43 44 45 43 41 41 42 40 36 36 35 33 35 36 38 44 48 50 50 50 52 54 52 51 51 49 49 46 43 41 39 39 40 41 43 44 43 42 41 39 40 42 41 43 43 41 41 41 43 44 41 40 41 41 42 46 47
35 39 45 55 57 57 62 65 65 64 62 61 62 69 75 73 72 75 76 74 72 73 74 76 76 73 71 71 68 62 59 61 63 63 65 63 54 46 43 43 42 43 44 43 42 42 43 40 37 35 31 31 33 34 38 43 45 48 52 51 51 53 53 52 50 50 48 44 42 41 40 40 40 41 41 42 42 41 40 39 40 41 40 40 40 39 37 38 43 44 40 40 41 43 44 44 44
31 33 38 46 48 49 55 61 64 64 63 62 64 72 77 73 71 73 72 70 70 71 73 74 76 76 72 70 68 64 60 59 60 62 63 62 57 48 43 43 43 43 43 43 43 44 44 41 37 34 30 30 33 34 37 41 44 48 52 53 53 53 54 53 51 51 47 41 39 39 40 40 40 41 41 42 42 41 42 41 40 40 39 37 38 40 39 38 41 41 41 43 44 45 48 47 45
24 25 27 33 40 47 52 57 61 63 67 65 63 69 73 70 72 73 69 68 68 69 71 70 72 76 75 70 67 66 62 58 59 61 62 62 60 52 44 42 43 43 43 43 43 45 45 41 38 34 29 28 31 34 36 39 43 47 50 53 53 51 52 51 50 50 47 42 41 39 39 39 40 40 41 43 42 42 43 43 42 40 39 38 37 40 42 42 43 41 42 44 44 46 48 49 49
20 24 24 25 36 48 52 53 55 59 64 62 58 62 68 68 68 71 69 67 67 66 68 68 67 71 75 72 67 66 64 59 57 59 60 62 62 56 46 42 42 42 43 43 43 45 45 42 38 34 30 28 29 32 36 39 43 46 48 50 51 50 50 49 50 50 47 45 44 42 39 39 42 42 41 42 42 40 42 43 43 41 40 38 39 41 43 44 46 46 45 44 43 45 46 47 50
18 23 21 22 32 44 50 50 51 53 54 54 56 58 63 65 62 66 70 69 68 66 66 66 65 66 72 73 68 66 65 60 56 57 59 61 61 58 50 43 42 42 42 43 43 45 45 42 38 34 32 29 27 30 34 37 40 43 47 49 49 49 49 48 48 48 48 47 46 45 42 40 44 45 42 42 41 40 41 41 41 42 41 39 40 43 43 46 48 48 47 45 44 44 43 44 46
16 21 19 20 26 34 39 41 46 49 45 45 51 52 58 63 60 62 69 71 70 68 65 64 63 63 67 72 70 66 65 62 56 56 57 58 61 61 52 44 42 42 41 41 42 43 44 42 39 35 33 30 27 28 30 32 35 39 45 47 46 46 46 46 48 48 47 48 47 46 45 43 45 46 44 42 40 39 39 40 39 40 42 40 39 42 43 47 49 48 47 45 43 42 41 42 43
14 18 18 18 21 27 30 31 35 39 37 35 41 44 50 60 63 63 69 71 68 66 63 62 63 63 64 68 70 67 66 64 59 55 55 57 61 62 53 45 43 41 40 40 40 41 43 42 39 36 34 30 27 26 26 27 30 35 41 44 43 43 43 45 48 49 48 47 47 46 46 45 45 46 46 41 38 38 38 39 39 39 41 41 39 40 44 48 47 45 44 43 42 41 41 41 42
12 13 14 15 16 20 24 25 26 31 34 32 35 39 43 54 61 61 64 66 64 63 62 60 61 63 63 66 69 68 67 67 62 57 55 57 61 61 55 48 43 40 39 39 38 39 42 42 39 36 32 29 27 25 24 24 27 31 37 42 41 41 45 45 47 49 48 47 47 45 45 44 41 42 44 40 38 38 37 38 39 39 40 41 41 42 46 48 46 45 43 41 42 42 41 41 42
14 13 12 12 14 15 19 25 27 31 39 40 41 43 42 49 57 56 57 59 61 62 60 59 60 61 63 64 67 69 69 69 65 60 57 57 61 61 57 52 46 41 39 37 36 38 41 41 39 35 31 28 27 25 23 23 25 28 34 40 41 41 45 46 47 49 47 46 45 43 43 42 40 41 41 38 37 37 37 37 37 39 40 40 43 46 47 48 48 49 49 47 45 44 42 42 42
18 21 18 16 18 17 21 34 40 42 50 53 54 54 50 51 54 52 53 56 61 62 60 59 59 60 63 65 66 68 68 68 67 64 58 57 60 59 57 56 50 43 39 38 37 38 40 41 39 35 31 27 26 25 23 22 23 26 30 36 39 41 44 44 44 46 45 43 41 41 43 41 40 43 42 39 39 37 37 39 37 38 41 41 43 46 45 46 49 50 51 51 50 47 46 45 43
22 29 30 27 28 27 30 40 43 49 60 63 60 60 58 57 55 51 52 57 60 63 63 62 61 60 62 65 66 67 66 65 68 67 59 54 57 57 57 58 54 46 41 39 39 39 40 42 39 35 31 28 27 26 24 22 22 24 27 30 33 36 40 43 42 42 42 40 38 40 40 39 39 42 43 43 44 41 40 41 38 37 41 41 40 40 40 40 42 44 46 47 46 46 47 48 45
28 34 34 35 38 39 41 44 44 52 66 67 63 62 61 62 62 58 58 60 61 64 65 65 67 65 63 65 67 66 65 66 69 69 61 54 54 56 58 58 56 53 46 40 40 40 40 42 40 37 32 29 28 28 28 24 22 24 25 27 29 30 34 41 41 40 40 37 36 37 38 39 38 38 41 44 47 47 46 45 41 38 39 39 36 35 36 36 37 39 40 41 40 40 43 46 46
30 31 30 38 42 40 40 44 44 49 60 65 64 64 62 62 64 61 61 64 65 67 68 67 69 68 64 66 68 66 66 70 73 71 63 57 53 53 58 57 57 57 50 41 39 40 41 42 42 39 35 31 29 30 31 29 26 25 25 26 27 27 29 35 38 38 37 37 36 36 39 43 42 39 39 42 44 46 47 46 43 40 39 37 36 34 34 35 35 37 39 39 38 38 40 44 47
29 31 33 38 37 34 39 44 42 44 52 59 61 64 63 62 66 64 61 65 67 68 68 67 69 69 65 66 66 65 67 71 75 72 65 61 56 53 57 57 57 57 51 44 40 39 41 42 43 42 38 34 31 31 32 32 31 29 27 26 26 26 26 28 32 33 34 37 38 39 42 46 46 45 44 42 41 43 44 44 43 43 42 39 38 37 37 37 36 36 38 38 37 38 40 42 44
29 33 35 36 33 34 43 49 46 44 50 54 55 61 64 65 71 69 64 65 67 67 67 66 67 67 65 66 64 64 67 70 74 74 69 66 60 55 55 57 56 56 52 46 43 41 39 40 42 42 40 37 33 33 34 33 33 32 30 28 26 26 26 26 29 29 30 34 38 39 42 44 45 47 47 45 45 43 42 41 41 43 45 45 44 42 41 42 41 39 39 39 38 38 41 42 42
31 32 30 32 37 43 49 52 50 50 54 53 52 59 66 68 73 72 67 67 67 67 67 67 68 68 65 65 63 64 68 70 72 75 72 70 65 57 54 55 55 54 53 49 44 43 40 39 41 41 40 39 35 34 35 34 34 34 33 31 29 28 28 29 29 29 30 33 36 38 42 44 45 44 45 48 49 47 45 43 42 42 44 47 48 46 45 45 44 42 42 41 41 42 45 47 46
35 36 34 33 38 44 47 49 51 55 60 57 54 60 68 71 73 74 73 71 69 69 69 67 68 69 67 65 62 63 66 69 71 73 73 74 70 61 55 56 55 54 55 50 44 44 43 39 40 41 40 39 37 35 36 36 35 35 35 34 33 33 32 32 34 35 37 38 39 40 42 44 45 45 45 47 47 47 48 49 48 47 46 46 49 51 50 50 48 46 45 43 44 46 47 48 49
37 38 41 40 42 45 45 47 53 58 61 61 59 61 68 71 72 73 73 71 69 70 70 67 65 65 65 66 65 63 64 67 70 71 73 78 75 64 57 58 56 56 57 52 45 45 46 43 40 40 40 40 38 37 37 37 36 36 37 36 35 36 36 36 39 42 44 44 44 46 46 46 46 46 46 47 48 48 49 51 51 50 49 50 53 57 57 56 52 50 48 47 48 50 50 49 49
38 38 40 42 45 49 52 57 60 61 63 62 58 61 68 70 70 73 72 69 69 69 70 68 66 64 63 63 63 64 63 64 68 71 74 79 78 70 62 60 58 57 58 56 49 45 47 46 42 39 39 40 39 39 39 40 39 39 40 40 39 38 38 39 41 44 47 48 49 51 51 50 50 50 49 48 50 50 50 52 51 50 52 53 55 58 58 56 54 53 51 50 51 55 59 59 55